RH
50 46 46 46 48 51 58 60 61 75 86 86 88 95 82 72 58 49 54 85 79 71 64 64 63 64 68 67 67 65 63 66 68 65 70 72 65 66 65 69 69 68 68
50 49 51 49 51 51 53 55 57 62 68 85 90 84 97 81 74 60 53 68 82 75 72 65 66 64 64 68 68 65 62 63 65 65 68 72 70 68 67 69 70 69 68
48 47 50 50 53 51 48 50 52 55 62 60 66 88 94 94 88 80 67 63 77 81 76 66 67 65 66 66 68 66 63 64 65 67 66 70 70 70 67 69 70 69 69
50 47 48 51 52 48 48 51 55 60 63 58 60 66 86 90 96 94 93 83 67 67 74 74 69 65 67 61 64 68 64 63 65 66 67 69 70 69 68 68 69 69 68
52 46 48 51 49 49 48 55 60 62 63 62 59 82 90 94 95 95 94 94 90 79 69 79 76 76 74 64 64 67 68 67 66 65 63 66 70 66 67 67 67 67 65
52 50 48 51 50 50 52 54 66 63 65 69 66 86 94 97 96 98 98 96 94 89 85 71 73 74 80 72 62 61 63 71 79 72 67 62 68 67 64 65 66 66 65
53 53 51 49 50 51 54 55 63 70 72 72 74 81 85 89 95 97 96 98 98 96 92 90 85 75 75 77 71 62 60 59 64 68 84 72 68 65 64 64 65 65 64
52 45 53 53 52 52 53 58 65 74 75 75 90 91 90 76 82 89 92 94 96 97 97 96 92 84 79 77 80 78 68 61 59 61 63 67 81 74 64 62 63 63 63
51 52 50 51 54 53 57 58 64 67 78 76 79 93 93 96 92 82 84 88 94 95 96 96 95 95 92 90 87 82 82 79 70 63 63 63 64 66 77 74 65 64 62
48 52 52 50 53 52 57 58 58 63 67 79 75 80 87 87 95 95 92 85 86 90 86 92 93 94 93 95 94 92 90 87 79 72 67 66 65 64 62 65 81 68 64
42 46 50 52 53 54 55 59 62 61 63 71 80 84 82 88 82 88 88 84 79 76 75 90 94 95 92 90 91 92 94 89 84 82 77 72 68 66 66 63 65 77 73
38 41 42 48 51 52 56 58 60 62 62 61 67 74 85 90 90 84 86 83 80 74 72 81 95 94 91 88 86 88 91 90 90 86 81 79 77 72 70 69 67 66 72
36 40 38 42 43 48 53 57 58 58 62 64 61 65 69 74 76 77 77 77 80 70 76 82 93 88 82 83 82 86 87 86 87 89 90 86 83 84 86 81 75 70 70
33 36 38 37 38 39 45 52 56 55 56 65 62 60 63 64 69 74 77 81 81 71 67 69 89 81 76 75 76 80 80 85 82 87 88 89 90 89 88 85 84 80 77
33 35 36 37 38 38 40 45 54 54 54 58 60 58 59 59 65 66 67 68 80 82 74 63 75 65 66 66 73 72 75 78 84 82 86 88 91 91 90 90 88 87 87
32 37 36 35 35 36 36 41 47 46 49 57 55 51 54 54 57 64 71 65 69 76 82 68 65 60 60 58 64 68 71 83 80 81 83 86 87 89 91 90 90 90 91
37 37 36 35 33 33 33 37 42 43 45 48 51 56 51 48 54 60 66 64 67 71 82 68 60 60 63 66 67 68 71 72 80 80 78 80 84 88 90 91 92 92 92
38 36 34 34 32 32 32 33 37 40 42 46 47 52 48 41 50 52 59 60 64 63 72 76 65 64 66 64 67 70 66 60 72 70 70 77 84 86 88 89 92 93 94
37 37 38 36 32 35 32 33 31 35 38 42 45 45 44 46 48 54 58 62 65 56 66 73 71 64 64 64 69 68 66 70 63 66 64 80 76 76 80 82 87 90 96
39 39 39 36 39 33 34 32 34 36 37 41 47 49 44 47 45 52 56 59 55 66 66 71 69 67 65 63 67 71 74 74 74 59 71 72 68 70 69 74 82 90 94
40 39 40 39 38 37 31 36 36 41 42 43 50 46 47 51 57 60 57 59 62 69 71 73 72 68 65 61 64 66 76 75 72 74 77 68 69 71 73 76 80 84 90
45 42 42 40 41 33 39 43 39 41 44 47 48 43 43 54 55 58 57 55 62 71 70 70 70 67 59 58 59 70 74 78 86 76 76 77 75 80 77 79 79 84 88
46 45 43 42 41 41 45 49 52 46 46 48 51 50 46 33 51 49 48 50 58 61 61 67 68 60 56 54 61 71 73 77 80 71 77 86 80 86 75 73 78 81 86
50 48 45 43 43 39 46 52 56 53 49 49 51 50 49 46 51 49 49 52 54 54 56 47 54 54 54 59 67 67 72 73 71 69 75 88 78 89 84 76 72 80 85
51 52 46 45 44 42 47 53 56 54 50 48 46 46 46 46 47 49 56 63 60 59 47 49 51 56 59 60 60 65 75 79 82 78 76 92 94 83 73 80 90 79 78
52 52 51 46 47 44 47 56 57 52 50 48 44 42 46 50 51 53 60 62 67 60 55 53 56 56 54 54 55 66 67 77 82 88 84 86 83 89 88 87 79 71 81
Wind_Speed
8 7 7 7 7 7 7 7 7 6 4 5 4 5 7 7 6 1 5 8 5 5 8 8 7 7 9 8 9 9 8 8 9 9 9 10 9 10 10 11 12 13 13
7 7 7 7 8 8 7 6 7 6 5 2 2 5 4 7 8 3 2 6 6 6 8 7 6 6 7 6 8 8 7 7 8 8 9 9 9 10 10 12 12 13 14
8 8 7 7 8 7 9 8 7 7 6 7 7 4 4 4 6 8 4 4 6 7 6 7 7 5 6 5 6 5 5 6 5 7 8 9 9 9 11 12 12 13 13
10 7 7 7 8 7 7 7 7 7 6 6 7 8 5 2 3 6 5 7 2 6 5 8 5 5 5 2 1 3 2 3 5 3 5 7 8 9 9 11 12 12 13
9 7 7 7 8 7 7 8 7 7 7 8 6 6 5 4 3 3 4 6 7 6 5 6 6 5 4 2 3 1 2 4 4 3 4 3 5 8 8 9 10 11 12
8 7 6 8 7 6 7 8 8 8 9 9 5 4 4 4 4 4 4 4 6 7 8 7 3 4 4 2 2 4 6 7 3 6 4 1 3 4 8 8 9 10 12
8 8 7 7 7 8 9 10 8 8 8 10 4 4 6 7 7 5 5 5 6 4 7 6 5 5 3 0 2 4 6 11 10 5 6 9 7 4 4 8 9 9 10
8 7 7 7 8 7 10 10 11 7 7 9 5 2 1 5 7 7 7 7 8 6 6 5 3 3 4 4 6 10 9 9 10 12 11 8 7 10 9 6 7 8 10
7 7 7 7 7 7 7 8 8 10 6 6 9 5 3 4 4 4 6 6 5 5 5 7 7 7 6 3 4 6 10 12 15 14 12 14 14 12 10 13 10 8 7
6 7 7 7 7 6 7 7 7 7 7 7 3 6 5 4 3 3 3 3 3 5 5 3 5 5 7 5 9 11 14 14 16 16 16 13 11 14 16 13 13 12 9
6 7 7 7 7 6 7 8 8 9 7 6 6 4 3 2 6 3 3 5 4 4 6 4 3 6 7 8 8 12 19 19 16 16 18 18 16 14 14 15 17 12 13
3 5 5 5 6 6 7 6 7 9 8 7 5 6 5 4 5 4 2 5 7 3 5 4 6 6 7 8 11 18 20 20 20 19 15 18 20 19 17 16 15 14 12
3 4 4 5 5 6 6 6 7 7 8 7 8 5 5 5 4 4 4 5 4 4 3 1 5 6 6 7 8 15 16 20 23 22 21 18 19 21 20 20 19 17 13
3 3 3 4 5 5 5 6 5 5 7 6 8 7 5 5 4 4 4 5 5 3 4 6 3 4 7 8 10 15 10 17 23 21 21 21 20 19 20 18 19 20 18
4 4 3 3 4 4 5 5 4 5 6 5 5 5 4 4 3 3 3 2 2 4 4 4 5 11 10 10 11 12 11 14 17 18 18 18 19 19 19 20 18 18 17
6 5 4 3 3 3 3 3 3 4 4 3 4 5 4 3 3 3 3 2 1 2 4 4 7 9 10 9 12 12 12 13 13 15 17 19 19 18 20 19 19 20 18
7 7 6 5 4 4 3 3 3 3 3 3 3 3 4 3 2 3 3 3 3 3 5 6 7 9 11 11 10 10 10 10 8 15 18 19 18 18 17 18 16 19 19
8 8 7 6 6 5 4 3 3 3 2 2 2 1 2 2 2 2 2 3 3 4 5 8 8 7 9 10 10 11 8 8 8 13 21 17 15 16 17 18 18 17 18
9 9 8 7 7 6 5 5 4 4 3 2 1 1 1 2 1 1 2 2 3 4 4 5 7 6 6 7 8 8 8 9 8 15 19 14 19 20 20 19 19 19 17
10 10 9 8 7 7 6 6 6 5 4 3 3 3 2 2 2 4 4 4 4 4 5 5 6 6 6 6 5 9 9 8 10 9 9 12 19 20 20 19 17 16 17
10 10 9 9 8 7 7 8 7 6 6 5 5 5 4 1 2 5 4 5 6 5 5 6 6 6 6 8 9 8 9 11 10 5 7 9 10 9 9 12 12 15 18
12 11 11 10 10 7 13 14 9 7 6 6 5 5 5 6 7 8 7 7 6 6 6 5 6 7 8 7 6 7 8 10 9 3 12 12 8 9 9 7 15 19 18
12 13 12 11 11 10 16 16 16 7 6 7 6 5 5 5 5 6 7 8 10 11 10 7 8 7 9 9 9 10 10 9 10 11 10 11 5 7 9 9 16 20 20
14 13 12 12 11 10 17 18 18 9 8 8 7 7 7 6 6 6 5 6 6 7 6 5 7 9 9 9 9 10 12 13 11 8 7 8 5 9 6 9 21 14 14
12 12 11 12 12 10 18 18 16 9 9 9 8 8 8 8 10 10 7 7 8 7 7 11 12 15 17 17 13 8 8 9 10 9 6 5 5 11 9 8 4 11 16
11 8 10 11 15 11 17 20 17 7 8 6 7 8 13 10 12 11 7 7 8 7 6 7 7 10 11 9 13 7 6 8 7 6 2 8 7 6 9 4 8 11 11
Wind_Direction
6 6 8 12 13 7 7 352 359 4 347 2 4 354 317 331 313 129 114 110 81 114 117 114 107 96 90 81 86 74 49 45 46 38 33 19 20 17 17 17 16 15 15
4 6 5 12 10 9 357 350 354 348 2 37 356 13 357 316 334 313 136 133 106 71 117 113 105 106 99 92 99 95 66 33 32 24 21 19 14 9 8 9 9 9 9
360 3 9 10 4 2 1 357 1 353 6 350 22 52 43 337 343 338 345 133 139 123 130 123 113 105 100 110 122 121 117 96 47 17 10 9 10 8 1 2 2 3 4
5 12 12 12 355 3 7 2 5 7 358 353 356 26 28 25 21 339 7 1 40 141 139 132 107 102 124 72 109 169 170 151 135 74 17 356 351 359 358 355 356 356 356
8 14 16 10 0 8 13 6 1 14 360 3 346 36 25 47 35 28 3 34 10 355 97 121 110 100 133 82 59 22 285 227 217 159 120 328 339 344 346 346 347 350 349
12 16 17 16 9 17 22 13 11 356 22 356 357 48 45 44 53 46 36 34 22 16 13 34 53 122 161 135 62 10 3 31 317 289 287 235 227 313 329 332 336 339 338
16 16 22 13 9 24 21 17 6 19 24 0 4 3 101 77 51 34 38 32 38 14 42 39 9 12 24 150 334 341 345 337 328 332 339 284 277 236 292 315 319 324 327
27 33 24 21 21 18 27 26 22 15 22 25 10 294 33 108 85 60 45 37 32 21 27 32 26 10 7 6 8 344 313 305 316 328 313 309 306 280 277 254 277 301 313
38 33 33 30 30 27 29 30 25 27 22 35 45 20 15 24 324 89 69 52 38 36 29 20 7 353 359 360 15 334 334 323 311 305 316 321 311 307 291 277 269 262 278
51 38 39 37 36 37 36 29 30 33 27 34 42 29 29 17 14 350 36 35 17 28 18 25 15 12 15 18 3 348 340 326 311 298 295 302 303 310 307 306 277 269 265
59 51 42 40 40 38 39 36 35 34 40 48 47 3 23 352 13 356 329 8 330 1 2 12 21 21 24 22 24 5 358 349 338 315 304 294 291 291 291 303 308 308 273
86 59 59 54 47 41 37 36 41 42 38 47 58 54 36 24 13 8 327 341 325 347 335 18 56 45 27 14 12 3 355 357 353 343 327 308 302 296 296 294 295 299 318
114 76 59 55 53 48 43 41 42 45 41 42 41 37 60 46 13 4 342 337 334 312 330 49 81 49 21 9 351 356 351 357 354 348 342 340 330 324 321 312 297 297 294
117 112 87 72 61 51 47 43 44 44 48 45 42 35 44 45 59 28 18 349 329 334 277 15 85 58 11 355 344 348 344 346 346 346 345 341 336 328 320 312 302 300 300
147 146 125 96 73 62 50 54 51 44 48 44 42 40 41 33 31 28 13 33 1 336 320 7 348 6 344 342 344 349 338 329 331 340 341 341 333 324 324 317 307 299 292
165 168 162 147 127 100 82 80 84 56 63 53 49 42 47 25 27 22 352 37 7 304 272 344 317 322 340 336 338 336 333 313 326 333 340 337 332 327 325 318 318 305 292
182 184 181 177 171 157 145 128 113 101 87 78 60 41 43 21 18 17 358 352 325 314 289 306 323 333 331 336 338 340 324 341 336 342 335 330 328 334 331 325 321 308 304
189 192 189 192 188 181 177 174 162 148 133 116 92 65 49 9 27 14 343 324 304 304 308 308 316 330 327 329 326 332 329 338 333 348 337 333 341 345 344 340 335 322 308
193 196 197 201 198 193 191 195 192 186 185 182 178 238 328 311 316 322 305 296 304 315 305 299 309 311 316 314 321 322 335 334 339 324 328 354 354 351 343 337 334 335 319
199 199 201 203 201 197 202 198 202 204 205 207 201 232 245 257 296 311 302 306 313 302 296 300 303 315 316 321 328 332 333 336 323 323 322 346 338 329 323 322 323 323 330
205 202 200 203 201 204 203 202 203 207 210 212 206 219 223 194 307 282 304 325 314 310 311 309 311 318 323 334 343 337 332 325 324 301 343 333 324 316 313 316 313 314 316
202 203 205 203 204 204 214 213 210 208 211 220 227 223 218 200 227 221 245 264 270 286 302 308 310 312 315 325 327 338 325 329 333 16 335 313 307 310 310 308 311 306 304
198 205 207 207 211 209 214 214 213 223 223 221 222 226 233 230 205 233 240 245 247 247 255 283 287 291 310 326 336 328 321 314 301 306 305 300 314 299 313 305 308 308 311
202 202 205 207 211 215 214 216 215 216 232 231 229 234 241 242 234 243 264 274 271 265 255 274 293 301 307 325 313 309 312 304 295 303 313 287 329 306 321 305 292 312 318
204 206 205 204 209 212 215 214 213 215 227 232 226 227 232 240 243 241 249 264 268 262 268 266 267 274 284 287 292 300 305 309 309 311 308 276 332 326 314 291 315 339 329
213 203 208 211 212 214 214 213 212 216 228 232 233 234 241 242 255 252 248 260 269 273 281 285 283 290 290 291 292 273 288 287 293 310 29 352 341 351 326 293 340 333 330